Regional Weather Roundup
Issued by NWS

Home | Current Version | Previous Version | Graphics & Text | Print | Product List | Glossary On
Versions: 1 2 3 4 5 6 7 8 9 10 11 12 13 14 15 16 17 18 19 20 21 22 23 24 25 26 27 28 29 30 31 32 33 34 35 36 37 38 39 40 41 42 43 44 45 46 47 48 49 50
114
ASUS43 KFSD 060910
RWRSD

WEATHER ROUNDUP FOR SOUTH DAKOTA
NATIONAL WEATHER SERVICE SIOUX FALLS SD
300 AM CST TUE DEC 06 2016

NOTE: "FAIR" INDICATES FEW OR NO CLOUDS BELOW 12,000 FEET WITH NO
SIGNIFICANT WEATHER AND/OR OBSTRUCTIONS TO VISIBILITY.


SDZ001>005-009-010-012>017-061000-
NORTHWEST AND NORTH CENTRAL SOUTH DAKOTA

CITY           SKY/WX    TMP DP  RH WIND       PRES   REMARKS
BUFFALO          N/A      7   1  76 W24G35    29.84R WCI -14
FAITH            N/A      7   3  84 NW33G40   29.86S WCI -17
MOBRIDGE       LGT SNOW  13   7  77 NW28G47   29.75R VSB 3/4 WCI  -8
$$

SDZ012>016-024>037-041>051-057-063-072>074-061000-
SOUTHWEST AND SOUTH CENTRAL SOUTH DAKOTA

CITY           SKY/WX    TMP DP  RH WIND       PRES   REMARKS
RAPID CTY ARPT CLEAR      6   0  76 SE7       29.92R WCI  -6
PIERRE         CLOUDY    14   6  70 NW35G46   29.89R WCI  -8
CUSTER         CLEAR      9  -2  61 NW18G33   29.77S WCI -10
ELLSWORTH AFB  CLEAR     16   2  54 NW15      29.90R WCI   1
PHILIP         CLEAR     13   4  67 W31G38    29.95R WCI  -9
PINE RIDGE     CLEAR     12   5  73 NW8       29.94S WCI   0
SPEARFISH      FAIR      12   1  62 W23       29.91R WCI  -7
WINNER         FAIR      18   9  68 W18       29.92S WCI   2
$$

SDZ004>011-016>023-039-040-061000-
NORTHEAST SOUTH DAKOTA

CITY           SKY/WX    TMP DP  RH WIND       PRES   REMARKS
ABERDEEN       CLOUDY    17   8  67 W29G37    29.71R WCI  -2
WATERTOWN      FLURRIES  14   8  77 W28G36    29.70R WCI  -6
BROOKINGS      FLURRIES  14   8  77 W22G30      N/A  WCI  -4
SISSETON         N/A     18  10  71 W41G52    29.57F WCI  -4
$$

SDZ017-020-022-023-036>040-048>070-061000-
SOUTHEAST SOUTH DAKOTA

CITY           SKY/WX    TMP DP  RH WIND       PRES   REMARKS
SIOUX FALLS    CLOUDY    17  10  74 W17       29.85R WCI   1
HURON          CLEAR     15   8  73 W24G31    29.84S WCI  -4
CHAMBERLAIN    CLEAR     18  11  75 W23G29    29.91S WCI   0
MITCHELL       CLEAR     17   9  70 W14       29.89S WCI   3
YANKTON        PTCLDY   N/A N/A N/A W22       29.92R
$$

ABBREVIATIONS USED IN REMARKS
   TC - TEMPERATURE IN CELSIUS
  WCI - WIND CHILL INDEX
   HX - HEAT INDEX
  VSB - VISIBILITY





USA.gov is the U.S. government's official web portal to all federal, state and local government web resources and services.